Lapse_Rate
7.6 7.6 7.6 7.6 7.5 7.7 7.4 7.4 7.2 7.1 7.0 7.0 6.9 6.9 7.0 7.1 7.3 7.4 7.5 7.9 8.0 8.4 8.6 8.5 8.7 8.6 8.2 8.1 8.4 8.4 8.5 8.4 8.6 8.5 8.4 8.3 8.3 8.1 8.0 8.1 7.9 7.8 7.7 7.6 7.5
7.6 7.5 7.6 7.8 7.7 7.8 7.6 7.5 7.3 7.2 6.9 6.9 7.0 7.0 7.1 7.2 7.2 7.5 7.9 7.9 8.0 8.2 8.4 8.6 8.6 8.7 8.3 8.5 8.4 8.5 8.7 8.3 8.4 8.5 8.5 8.8 8.6 8.6 8.4 8.3 8.1 8.0 7.9 7.7 7.6
7.7 7.6 7.6 7.8 7.8 7.6 7.6 7.5 7.4 7.3 7.1 7.0 6.9 7.0 7.2 7.3 7.4 7.6 7.8 7.8 7.9 7.9 8.2 8.3 8.5 8.5 8.3 8.5 8.5 8.5 8.8 8.3 8.3 8.6 8.7 8.7 8.5 8.7 8.6 8.5 8.4 8.1 7.9 7.8 7.7
7.6 7.8 7.8 7.8 7.8 7.7 7.6 7.6 7.4 7.3 7.3 7.3 7.2 7.2 7.3 7.3 7.3 7.5 7.6 7.8 7.8 7.8 8.0 8.1 8.3 8.2 8.2 8.3 8.8 8.8 8.6 8.4 8.3 8.6 8.8 8.7 8.7 8.9 8.6 8.5 8.4 8.4 8.1 7.8 7.7
7.7 7.7 7.9 7.9 7.8 7.7 7.6 7.6 7.4 7.3 7.4 7.5 7.5 7.4 7.4 7.4 7.4 7.5 7.5 7.6 7.8 7.9 7.9 8.0 8.0 8.2 8.3 8.6 8.8 8.9 8.8 8.6 8.6 8.7 8.8 8.8 8.8 8.9 8.9 8.6 8.5 8.5 8.2 8.0 7.9
7.6 7.7 7.8 7.9 7.9 7.7 7.7 7.6 7.5 7.4 7.5 7.6 7.6 7.6 7.6 7.4 7.5 7.5 7.5 7.6 7.6 7.8 7.9 8.0 8.1 8.3 8.3 8.6 8.9 9.0 9.1 8.9 8.8 8.6 8.6 8.6 8.7 8.6 9.0 8.9 8.6 8.5 8.4 8.1 8.0
7.7 7.7 7.7 7.8 7.8 7.8 7.8 7.7 7.7 7.6 7.6 7.6 7.7 7.8 7.8 7.7 7.6 7.5 7.5 7.5 7.6 7.8 7.7 7.9 8.2 8.2 8.4 8.6 9.0 9.1 9.1 9.1 8.7 8.6 8.8 8.6 8.8 9.0 9.0 9.0 8.8 8.6 8.5 8.3 8.2
7.7 7.7 7.8 7.8 7.8 7.9 7.9 7.9 7.8 7.8 7.7 7.7 7.7 7.8 7.9 7.8 7.8 7.7 7.5 7.6 7.7 7.8 7.8 7.7 8.0 8.1 8.3 8.6 9.1 9.1 9.0 9.0 9.1 8.8 8.7 8.6 9.0 9.0 9.0 9.0 9.0 8.7 8.6 8.4 8.1
7.5 7.7 7.7 7.8 7.9 7.9 7.9 8.0 8.0 7.9 7.9 7.8 7.7 7.8 7.9 7.9 7.9 7.9 7.7 7.7 7.7 7.9 7.9 7.8 7.8 7.9 8.1 8.4 8.8 9.1 9.1 9.1 9.3 8.7 8.8 8.8 9.0 9.0 9.0 9.0 9.0 8.8 8.7 8.5 8.3
7.4 7.5 7.6 7.7 7.8 7.8 7.9 8.0 8.0 8.0 8.0 7.9 7.8 7.8 7.9 8.0 7.9 7.8 7.9 7.9 7.8 7.9 7.8 7.9 7.8 7.9 8.1 8.5 8.6 8.6 8.8 9.0 9.0 8.7 8.5 8.9 9.1 8.9 9.0 9.0 9.2 9.2 8.8 8.5 8.3
7.3 7.3 7.4 7.5 7.6 7.7 7.8 7.9 7.9 8.0 8.1 7.9 7.9 7.8 7.9 7.9 7.8 7.8 7.7 7.8 7.8 7.8 7.8 7.9 7.8 8.1 8.3 8.3 8.2 8.4 8.5 8.9 8.8 8.6 8.8 8.8 8.9 8.9 9.0 9.1 9.3 9.4 9.0 8.4 8.1
7.3 7.4 7.3 7.4 7.3 7.6 7.7 7.8 7.8 7.8 8.1 8.1 8.0 7.9 7.8 7.9 7.8 7.8 7.7 7.7 7.7 7.8 7.8 7.8 7.8 7.9 8.0 8.0 8.1 8.4 8.4 8.8 8.9 8.9 8.9 8.9 8.9 9.0 9.1 9.2 9.2 9.3 8.8 8.1 7.7
7.4 7.5 7.4 7.4 7.2 7.4 7.5 7.6 7.6 7.7 7.9 8.2 8.1 8.1 7.8 7.9 7.8 7.8 7.7 7.8 7.6 7.6 7.8 7.9 8.0 8.0 7.9 7.9 8.1 8.4 8.4 8.5 8.9 8.9 9.0 8.9 8.9 8.8 8.9 8.9 8.9 9.1 8.7 7.9 8.1
7.5 7.6 7.5 7.5 7.3 7.4 7.4 7.4 7.3 7.4 7.7 8.3 8.3 8.3 7.9 8.0 8.0 7.8 7.7 7.5 7.5 7.6 7.7 7.7 7.7 7.7 7.9 8.1 8.2 8.3 8.5 8.6 8.9 9.0 9.1 8.9 9.1 9.0 9.0 8.7 8.7 8.9 8.9 8.9 8.5
7.3 7.4 7.4 7.4 7.4 7.5 7.4 7.3 7.2 7.4 7.7 8.0 8.0 8.1 8.2 8.0 8.1 8.0 7.8 7.5 7.4 7.4 7.5 7.7 7.7 7.5 7.8 8.2 8.2 8.3 8.5 8.6 8.7 8.8 8.7 8.7 8.9 9.1 9.0 8.9 9.0 9.0 9.0 8.9 8.7
7.2 7.1 7.1 7.2 7.3 7.4 7.3 7.2 7.2 7.3 7.3 7.9 7.8 7.8 8.0 7.9 7.9 8.0 7.8 7.6 7.4 7.2 7.3 7.4 7.5 7.8 7.9 8.0 8.2 8.3 8.5 8.6 8.6 8.6 9.0 8.5 8.5 8.9 8.9 9.0 8.8 8.7 8.5 8.4 8.3
7.3 7.1 7.1 7.1 7.2 7.2 7.0 6.9 7.0 7.0 7.8 7.6 7.6 7.7 7.7 7.8 7.6 7.8 7.9 7.6 7.3 7.2 7.4 7.6 7.7 8.1 8.0 8.0 8.3 8.3 8.4 8.5 8.7 8.7 9.1 8.4 8.3 8.7 8.8 8.7 8.7 8.5 8.4 8.3 8.2
7.4 7.3 7.2 7.2 7.2 7.1 6.8 6.6 6.5 7.2 7.8 7.8 7.7 7.6 7.7 7.8 7.8 7.6 7.5 7.6 7.4 7.4 7.6 7.6 7.9 8.2 8.2 8.3 8.5 8.6 8.5 8.7 8.4 8.6 8.7 8.3 8.7 8.7 8.9 8.7 8.8 8.6 8.6 8.3 8.0
7.2 7.3 7.4 7.4 7.2 7.0 6.7 6.2 6.8 7.3 7.5 7.9 7.9 7.8 7.8 7.9 7.8 7.7 7.6 7.7 7.7 7.7 7.6 7.7 8.0 8.4 8.4 8.4 8.5 8.6 8.5 8.6 8.5 8.1 8.2 8.4 8.6 8.8 8.9 8.9 8.8 8.6 8.4 8.4 8.0
6.8 7.0 7.2 7.3 7.1 6.9 6.6 6.7 7.0 7.3 7.5 7.6 7.8 7.8 7.9 7.9 7.8 7.8 7.8 7.9 7.7 7.8 7.8 7.9 8.2 8.4 8.3 8.3 8.5 8.7 8.8 8.6 8.6 8.6 8.6 8.3 8.5 8.8 8.8 8.8 8.7 8.4 8.4 8.2 7.9
6.7 6.8 6.9 7.1 6.9 6.7 6.6 6.9 7.1 7.1 7.4 7.4 7.6 7.8 7.9 7.8 7.8 8.0 8.1 8.1 8.0 8.0 7.9 7.9 8.0 8.1 8.3 8.3 8.6 8.7 8.5 8.7 8.7 8.5 8.9 8.9 9.0 8.8 8.9 8.9 8.8 8.6 8.6 8.3 7.9
6.6 6.7 6.8 6.8 6.7 6.6 6.8 6.8 6.9 6.9 7.1 7.4 7.6 7.6 7.8 7.9 7.9 8.0 8.1 8.2 8.3 8.2 8.1 8.1 8.0 8.1 8.2 8.2 8.2 8.5 8.7 9.0 9.0 8.2 8.6 8.2 9.1 9.1 9.2 9.0 8.8 8.6 8.4 8.5 8.0
6.2 6.3 6.5 6.6 6.5 6.7 6.8 6.7 6.7 6.9 6.9 7.0 7.4 7.6 7.8 7.8 8.1 8.0 8.2 8.2 8.3 8.4 8.3 8.2 7.9 8.1 8.3 8.3 8.2 8.4 8.9 9.2 9.2 9.1 8.8 8.9 9.1 9.1 9.2 9.1 9.0 8.7 8.5 8.5 8.2
5.9 5.9 6.1 6.2 6.3 6.3 6.6 6.6 6.7 6.9 6.9 6.9 7.3 7.6 7.8 7.9 8.0 8.1 8.1 8.1 8.3 8.6 8.5 8.3 8.2 8.3 8.6 8.8 8.8 8.7 9.1 9.2 9.3 9.1 8.8 8.9 9.0 9.0 9.1 9.1 9.0 8.7 8.3 8.2 8.4
5.8 5.9 6.1 5.9 6.0 6.2 6.4 6.6 6.8 6.8 6.8 7.1 7.4 7.6 7.9 7.9 8.0 8.1 8.2 8.2 8.2 8.6 8.9 8.6 8.5 8.5 8.7 8.9 8.9 9.0 9.2 9.2 9.2 9.4 9.4 9.2 9.2 9.0 9.0 9.0 8.9 8.9 8.2 8.1 8.0
6.1 5.9 6.1 6.1 6.2 6.2 6.3 6.6 6.8 6.7 6.8 7.2 7.5 7.8 8.0 8.0 8.2 8.3 8.2 8.4 8.2 8.5 8.8 8.8 8.7 8.8 8.8 8.9 8.9 9.0 9.0 9.0 9.1 9.1 9.1 9.2 9.1 9.1 9.0 8.9 9.0 8.5 8.1 7.9 8.0
6.1 6.0 6.0 6.2 6.4 6.5 6.5 6.6 6.9 6.8 6.9 7.2 7.4 7.6 7.9 8.2 8.3 8.5 8.4 8.4 8.4 8.4 8.5 8.6 8.7 9.0 8.6 8.6 8.8 8.7 8.9 9.0 9.0 9.1 9.1 9.0 8.9 8.8 8.8 8.9 8.8 8.1 8.0 8.1 7.9
Wind_Speed
19 18 19 19 18 19 20 20 20 20 21 21 21 20 19 20 17 4 3 1 2 5 4 2 6 6 11 6 4 3 2 2 3 6 5 10 11 6 4 8 3 1 2 4 16
20 21 21 21 21 21 20 20 20 20 21 21 20 20 17 17 3 2 2 2 3 6 3 6 1 1 5 5 4 2 0 1 1 2 4 13 14 13 6 8 3 2 7 15 17
20 22 21 21 21 22 22 22 21 22 21 21 20 19 16 10 2 2 3 4 2 5 1 1 2 1 2 1 2 2 1 4 4 5 3 10 7 10 7 7 9 10 16 18 16
20 19 20 21 22 22 23 23 23 22 20 20 22 20 19 1 1 2 2 1 2 1 1 2 1 1 2 2 0 2 2 4 2 3 5 9 10 8 11 4 3 11 18 18 16
19 19 21 22 23 23 24 24 23 22 20 18 20 18 3 2 1 1 3 1 0 2 4 3 3 1 2 2 1 0 2 2 4 4 3 8 13 8 11 3 9 17 17 18 16
21 22 22 22 22 24 25 25 25 23 21 17 15 14 1 3 2 3 3 1 2 3 4 2 3 2 1 1 2 3 6 5 2 2 5 8 6 9 5 11 14 17 19 17 18
23 23 22 23 23 25 25 26 25 24 20 13 7 2 0 7 2 2 2 1 1 1 3 1 3 3 1 1 4 4 6 6 5 3 1 7 4 13 8 14 17 16 15 15 15
21 22 24 25 25 26 27 27 26 21 13 3 2 0 5 1 4 2 2 1 1 2 2 4 1 1 2 1 3 1 1 3 3 2 1 7 11 8 12 17 17 17 14 13 15
22 23 24 26 27 28 29 28 20 5 3 3 1 2 6 6 3 0 3 1 1 1 2 1 3 3 0 1 0 5 2 3 5 5 1 6 9 4 10 12 15 15 14 13 13
24 25 25 27 27 28 31 20 2 1 1 2 0 2 3 1 3 1 1 0 3 2 2 4 4 0 2 3 7 3 1 2 5 3 3 5 10 1 8 12 14 15 12 13 13
24 25 26 27 27 26 13 0 2 2 2 4 1 3 4 7 3 1 2 5 2 4 2 3 3 5 4 3 4 3 2 3 5 3 4 2 5 1 7 10 12 13 12 12 6
25 26 28 28 28 25 3 4 4 2 6 5 7 8 7 1 4 1 6 5 3 4 3 2 4 2 2 4 4 2 1 3 5 5 2 4 1 5 1 3 7 8 10 11 10
26 26 27 28 30 3 3 6 4 5 3 5 5 5 3 9 5 5 9 4 3 4 4 4 3 4 5 3 4 2 4 2 2 3 3 7 1 2 4 5 8 3 13 12 16
25 25 25 34 2 3 1 1 6 6 2 3 3 2 4 5 4 5 8 3 2 6 5 4 1 3 2 4 7 4 7 3 1 1 2 6 4 4 5 7 8 7 10 14 15
25 24 21 11 5 2 1 9 3 3 2 2 1 1 2 7 3 4 2 3 6 5 4 2 5 4 3 3 9 2 4 4 2 3 2 5 2 2 5 5 9 5 11 15 15
25 22 17 2 2 4 8 7 3 1 5 2 0 3 5 4 1 3 4 3 2 4 2 3 2 3 2 2 2 9 5 5 3 1 3 2 3 1 4 5 4 3 11 14 14
27 22 6 2 1 9 8 1 2 4 3 2 2 2 2 6 4 4 11 10 6 5 7 2 4 3 3 3 5 3 3 2 3 3 2 2 3 2 6 6 6 8 10 12 10
31 16 6 4 4 10 0 2 3 2 4 2 2 3 5 9 9 5 8 10 4 3 3 7 7 6 5 4 4 3 2 3 1 2 1 2 1 2 6 6 2 5 7 11 13
22 0 1 2 3 2 2 4 6 5 2 4 4 3 2 3 3 10 11 8 11 11 4 5 5 2 2 2 1 5 4 3 6 1 3 1 3 8 5 2 6 5 8 9 10
2 2 3 7 4 1 2 4 3 3 4 2 2 1 1 0 6 8 9 6 7 13 11 4 3 1 2 3 8 1 8 4 1 4 3 2 3 4 5 4 7 7 9 7 3
1 2 5 2 2 2 4 4 3 4 3 2 1 3 2 2 1 4 4 3 8 9 9 7 2 3 2 3 6 5 4 5 4 2 2 3 2 4 7 6 8 9 10 7 4
2 2 2 2 2 1 2 1 2 3 1 2 2 3 2 2 3 3 7 5 5 11 11 6 3 6 6 1 2 2 5 5 4 5 1 2 2 2 4 7 6 6 6 4 2
2 1 1 2 2 2 0 2 3 2 2 2 3 4 1 1 3 4 4 0 4 10 10 9 3 4 3 2 2 3 3 4 7 2 6 4 2 3 5 3 2 2 3 2 0
1 2 2 3 1 2 2 1 3 3 5 4 4 2 2 3 3 3 2 1 1 6 2 9 4 5 7 2 3 4 5 7 2 5 8 4 1 5 5 2 3 4 1 2 2
3 2 2 2 2 2 2 1 2 4 3 3 3 9 6 3 2 4 2 2 2 1 3 6 8 6 4 4 3 4 10 9 5 7 5 7 6 3 6 4 2 4 6 6 3
3 2 1 2 0 2 1 1 3 3 4 4 6 6 7 7 4 2 2 1 1 1 3 0 5 6 6 4 8 5 7 6 4 6 2 3 4 5 3 1 6 6 5 3 1
2 1 3 1 1 2 2 1 4 2 7 13 9 7 6 7 4 3 1 2 1 2 3 3 6 5 5 3 9 5 7 8 3 2 2 5 0 5 6 4 5 5 1 2 4
Wind_Direction
360 356 359 352 354 348 343 341 337 334 330 328 326 325 328 328 315 188 246 219 183 334 275 270 165 155 181 181 203 173 226 162 159 164 176 172 185 167 128 141 160 230 180 142 143
357 359 354 348 349 345 339 333 330 327 325 325 324 321 324 332 319 315 287 223 227 353 2 31 8 81 175 155 166 243 64 66 319 231 208 194 188 158 164 166 207 182 104 137 150
355 0 348 346 345 341 335 329 329 326 325 323 321 319 323 332 287 13 324 195 331 33 49 343 280 296 92 38 50 124 158 182 215 246 263 194 179 166 164 202 211 203 157 158 164
358 351 343 347 341 337 330 328 324 320 320 324 321 321 322 259 91 351 227 64 355 21 54 324 295 100 105 132 243 251 213 215 194 221 149 176 157 188 200 211 282 179 165 159 173
353 347 348 342 338 332 326 322 315 315 319 324 317 321 329 325 291 264 182 161 303 349 52 19 49 54 148 145 178 300 337 270 277 220 194 160 197 196 216 209 121 145 167 171 178
349 347 345 339 334 325 323 317 315 313 315 315 309 318 331 274 75 183 200 143 46 16 2 28 15 346 97 88 29 327 277 291 236 137 175 199 214 190 200 143 142 165 176 181 185
347 343 339 334 331 325 321 316 314 313 309 302 294 313 8 249 1 208 235 345 105 26 339 350 354 328 292 87 355 346 354 339 48 349 161 154 162 223 176 162 163 183 178 191 196
343 340 337 332 328 325 320 316 313 311 311 305 224 202 261 231 317 180 187 289 242 247 252 325 48 62 339 345 42 59 70 320 22 328 261 226 270 250 177 170 177 183 185 193 205
343 340 336 329 328 324 321 315 309 303 53 103 170 26 276 320 263 244 205 193 328 1 20 356 60 50 140 86 224 36 302 331 325 9 287 236 283 9 179 190 187 188 187 192 209
343 337 333 329 327 324 321 312 257 290 182 217 166 305 260 354 323 25 163 74 72 8 32 32 41 354 101 196 231 187 32 313 283 324 302 224 262 330 189 201 203 198 184 199 207
341 336 331 329 325 327 336 209 313 201 8 239 152 272 284 307 268 196 149 135 121 70 140 28 239 210 179 122 110 136 122 287 275 288 293 306 265 293 193 213 213 206 192 205 203
340 336 332 328 323 322 292 71 83 339 307 251 255 265 262 324 302 225 161 165 165 178 149 180 239 218 174 166 173 163 6 243 287 360 264 356 315 358 268 307 289 237 192 205 114
338 336 331 328 320 345 1 122 335 166 267 290 221 236 218 174 218 231 179 154 151 161 179 197 140 127 218 203 191 174 218 199 284 337 88 331 189 171 52 1 358 223 184 176 158
336 335 333 328 303 346 171 347 320 187 321 255 236 261 166 185 227 198 184 146 140 208 171 242 224 235 228 211 187 221 211 181 214 332 18 346 325 327 22 64 34 64 169 144 150
333 332 332 338 308 237 30 330 137 217 302 63 185 35 126 199 124 182 188 130 183 173 190 182 173 184 285 214 187 111 109 119 93 95 202 29 269 19 340 347 21 93 141 161 167
329 327 326 170 245 277 319 318 203 223 248 25 161 163 153 223 200 111 153 95 128 157 234 265 283 256 243 56 181 142 98 67 76 47 235 34 311 84 329 322 336 173 159 172 179
327 321 291 239 267 326 306 196 157 209 352 48 29 31 212 185 208 160 181 183 183 169 216 220 228 257 201 148 104 120 135 224 216 202 194 148 236 298 267 296 270 212 178 171 177
326 321 199 233 304 343 312 113 188 229 246 334 323 299 215 166 213 165 154 194 195 135 147 202 203 200 168 225 169 159 214 218 214 163 115 185 207 351 266 318 269 158 170 172 193
325 101 181 304 271 209 143 191 207 210 329 320 300 260 231 214 220 196 217 203 201 194 205 168 232 264 226 128 220 154 175 82 107 55 244 360 253 269 279 254 126 127 169 187 206
341 340 19 341 146 157 136 215 233 242 327 274 279 302 292 335 193 193 178 188 194 200 210 174 225 214 91 108 56 216 138 158 118 181 215 163 280 265 277 300 157 161 181 177 194
322 98 358 69 256 65 198 219 264 259 234 281 307 301 293 318 230 205 195 210 212 187 195 160 235 130 197 207 188 149 174 67 101 328 181 179 211 220 259 287 214 179 180 187 205
350 94 27 294 103 52 164 198 320 291 244 278 262 258 260 321 275 231 222 247 180 152 176 188 158 239 253 59 308 289 180 160 195 182 77 304 213 200 263 267 258 183 174 131 15
44 55 63 290 147 141 260 290 264 275 277 323 276 243 226 278 296 229 208 73 173 172 171 172 197 222 182 154 148 219 137 106 103 129 178 196 183 188 263 209 252 239 101 349 59
306 127 70 65 35 59 48 28 283 296 257 250 277 266 285 245 213 298 259 138 21 222 92 156 144 191 214 189 152 164 157 165 154 179 161 210 239 293 327 88 191 195 184 358 211
12 66 3 135 109 73 307 306 267 297 267 258 246 238 239 264 234 228 253 294 90 229 107 189 192 187 220 223 215 184 172 177 208 155 199 166 212 2 33 346 193 122 101 91 100
5 330 71 89 215 124 120 247 260 248 236 248 233 287 233 230 248 247 201 269 272 111 127 151 165 170 208 180 200 177 161 170 180 171 133 155 248 55 25 257 145 141 99 78 22
15 291 287 27 105 171 135 354 292 346 246 248 285 306 246 236 288 327 276 116 6 233 138 147 145 163 186 158 140 141 163 169 153 193 167 197 189 24 60 76 75 103 128 292 306